Date String (YYYY-MM-DD hh:mm:ss) UTC,Instrument flags,Ambient pressure (hPa),Sample flow (lpm),Bypass flow (lpm),Sample temperature (°C),Ambient temperature (°C),ASC tube jacket temperature (°C),LED temperature (°C),Box temperature (°C),Sample RH (%),Span deviation,Mass concentration (μg/m³),Mass concentration (μg/m³),Mass concentration (μg/m³)
DateTimeUTC,F1_M11,P_M11,Q1_M11,Q2_M11,T1_M11,T2_M11,T3_M11,T4_M11,T5_M11,U1_M11,ZSPAN_M11,X0_M11,X2_M11,X1_M11
2021-11-02 04:00:00,,0834.0,5.00,0.00,22.7,22.0,00.0,31.6,24.5,21.5,0000.0,0011.47,0006.07,0005.56
2021-11-02 04:01:00,,0834.1,5.00,0.00,22.7,22.0,00.0,31.6,24.5,21.4,0000.0,0011.53,0006.12,0005.61
2021-11-02 04:02:00,,0834.0,5.00,0.00,22.7,22.1,00.0,31.6,24.5,21.3,0000.0,0011.89,0006.17,0005.65
2021-11-02 04:03:00,,0834.0,5.01,0.00,22.7,22.0,00.0,31.6,24.5,21.3,0000.0,0012.52,0006.22,0005.69
2021-11-02 04:04:00,,0834.0,5.00,0.00,22.7,22.1,00.0,31.7,24.5,21.3,0000.0,0012.77,0006.29,0005.72
2021-11-02 04:05:00,,0834.0,4.99,0.00,22.7,22.1,00.0,31.7,24.5,21.3,0000.0,0012.72,0006.34,0005.76
2021-11-02 04:06:00,,0834.0,4.99,0.00,22.7,22.1,00.0,31.7,24.5,21.2,0000.0,0012.47,0006.38,0005.80
2021-11-02 04:07:00,,0834.0,5.00,0.00,22.7,22.1,00.0,31.7,24.5,21.2,0000.0,0011.62,0006.43,0005.83
2021-11-02 04:08:00,,0834.0,5.00,0.00,22.7,22.1,00.0,31.7,24.5,21.2,0000.0,0011.53,0006.47,0005.86
2021-11-02 04:09:00,,0834.0,5.00,0.00,22.7,22.1,00.0,31.7,24.6,21.2,0000.0,0011.59,0006.51,0005.90
2021-11-02 04:10:00,,0834.0,5.01,0.00,22.7,22.1,00.0,31.7,24.5,21.2,0000.0,0011.29,0006.53,0005.92
2021-11-02 04:11:00,,0834.0,5.00,0.00,22.7,22.1,00.0,31.7,24.6,21.2,0000.0,0011.03,0006.54,0005.95
2021-11-02 04:12:00,,0834.0,5.00,0.00,22.7,22.1,00.0,31.7,24.5,21.1,0000.0,0010.92,0006.54,0005.96
2021-11-02 04:13:00,,0834.0,5.01,0.00,22.7,22.1,00.0,31.7,24.5,21.1,0000.0,0010.76,0006.53,0005.97
2021-11-02 04:14:00,,0834.0,4.98,0.00,22.7,22.1,00.0,31.7,24.5,21.0,0000.0,0010.80,0006.52,0005.97
2021-11-02 04:15:00,,0834.0,5.01,0.00,22.7,22.1,00.0,31.7,24.5,21.1,0000.0,0010.80,0006.50,0005.97
2021-11-02 04:16:00,,0834.0,4.98,0.00,22.7,22.1,00.0,31.7,24.5,21.1,0000.0,0010.62,0006.45,0005.95
2021-11-02 04:17:00,,0833.9,5.00,0.00,22.7,22.1,00.0,31.7,24.5,21.1,0000.0,0010.49,0006.42,0005.92
2021-11-02 04:18:00,,0833.9,5.01,0.00,22.7,22.1,00.0,31.7,24.6,21.1,0000.0,0010.44,0006.39,0005.91
2021-11-02 04:19:00,,0834.0,5.01,0.00,22.7,22.1,00.0,31.7,24.6,21.1,0000.0,0010.40,0006.35,0005.88
2021-11-02 04:20:00,,0834.0,4.99,0.00,22.7,22.1,00.0,31.7,24.6,21.1,0000.0,0010.27,0006.29,0005.84
2021-11-02 04:21:00,,0834.0,4.99,0.00,22.7,22.1,00.0,31.7,24.6,21.1,0000.0,0010.13,0006.24,0005.81
2021-11-02 04:22:00,,0834.0,5.01,0.00,22.7,22.1,00.0,31.7,24.6,21.1,0000.0,0009.91,0006.16,0005.76
2021-11-02 04:23:00,,0834.0,5.00,0.00,22.7,22.1,00.0,31.7,24.6,21.1,0000.0,0009.87,0006.12,0005.72
2021-11-02 04:24:00,,0834.0,5.00,0.00,22.8,22.1,00.0,31.7,24.6,21.1,0000.0,0009.62,0006.09,0005.68
2021-11-02 04:25:00,,0834.0,5.00,0.00,22.8,22.1,00.0,31.7,24.6,21.0,0000.0,0009.02,0006.05,0005.66
2021-11-02 04:26:00,,0834.0,5.01,0.00,22.8,22.1,00.0,31.8,24.6,21.0,0000.0,0008.71,0006.00,0005.61
2021-11-02 04:27:00,,0834.0,5.00,0.00,22.8,22.1,00.0,31.8,24.6,20.9,0000.0,0008.68,0005.97,0005.59
2021-11-02 04:28:00,,0834.0,5.01,0.00,22.8,22.1,00.0,31.8,24.7,21.0,0000.0,0008.64,0005.94,0005.57
2021-11-02 04:29:00,,0834.0,5.00,0.00,22.8,22.1,00.0,31.8,24.6,21.0,0000.0,0008.68,0005.96,0005.55
2021-11-02 04:30:00,,0834.0,5.00,0.00,22.8,22.1,00.0,31.8,24.7,20.9,0000.0,0008.64,0005.93,0005.53
2021-11-02 04:31:00,,0834.0,4.99,0.00,22.8,22.1,00.0,31.8,24.7,20.9,0000.0,0008.62,0005.90,0005.50
2021-11-02 04:32:00,,0834.0,5.02,0.00,22.8,22.1,00.0,31.8,24.7,20.9,0000.0,0008.63,0005.88,0005.46
2021-11-02 04:33:00,,0833.9,4.99,0.00,22.8,22.1,00.0,31.8,24.7,20.9,0000.0,0008.64,0005.85,0005.44
2021-11-02 04:34:00,,0833.9,5.01,0.00,22.8,22.1,00.0,31.8,24.7,20.8,0000.0,0008.61,0005.81,0005.42
2021-11-02 04:35:00,,0833.9,4.99,0.00,22.8,22.1,00.0,31.8,24.7,20.8,0000.0,0008.55,0005.76,0005.39
2021-11-02 04:36:00,,0833.9,5.01,0.00,22.8,22.2,00.0,31.8,24.7,20.7,0000.0,0008.45,0005.72,0005.35
2021-11-02 04:37:00,,0833.9,4.99,0.00,22.8,22.1,00.0,31.8,24.7,20.7,0000.0,0008.41,0005.70,0005.33
2021-11-02 04:38:00,,0833.9,4.99,0.00,22.8,22.1,00.0,31.8,24.7,20.7,0000.0,0008.37,0005.69,0005.31
2021-11-02 04:39:00,,0833.9,5.02,0.00,22.8,22.1,00.0,31.8,24.7,20.7,0000.0,0008.34,0005.65,0005.28
2021-11-02 04:40:00,,0833.8,5.00,0.00,22.8,22.1,00.0,31.8,24.7,20.7,0000.0,0008.23,0005.59,0005.24
2021-11-02 04:41:00,,0833.8,5.00,0.00,22.8,22.1,00.0,31.8,24.7,20.7,0000.0,0008.20,0005.54,0005.21
2021-11-02 04:42:00,,0833.8,5.01,0.00,22.8,22.1,00.0,31.8,24.7,20.7,0000.0,0008.15,0005.49,0005.16
2021-11-02 04:43:00,,0833.8,5.01,0.00,22.8,22.1,00.0,31.8,24.7,20.7,0000.0,0008.56,0005.45,0005.12
2021-11-02 04:44:00,,0833.8,4.99,0.00,22.8,22.1,00.0,31.8,24.7,20.7,0000.0,0009.08,0005.42,0005.08
2021-11-02 04:45:00,,0833.8,5.00,0.00,22.8,22.1,00.0,31.8,24.7,20.7,0000.0,0009.16,0005.37,0005.04
2021-11-02 04:46:00,,0833.7,4.99,0.00,22.8,22.1,00.0,31.8,24.7,20.6,0000.0,0009.13,0005.34,0005.01
2021-11-02 04:47:00,,0833.7,5.01,0.00,22.8,22.1,00.0,31.8,24.7,20.6,0000.0,0009.10,0005.29,0004.97
2021-11-02 04:48:00,,0833.7,5.00,0.00,22.8,22.1,00.0,31.8,24.7,20.6,0000.0,0009.02,0005.24,0004.93
2021-11-02 04:49:00,,0833.7,4.99,0.00,22.8,22.1,00.0,31.9,24.7,20.6,0000.0,0008.90,0005.18,0004.90
2021-11-02 04:50:00,,0833.7,5.01,0.00,22.9,22.1,00.0,31.9,24.7,20.6,0000.0,0008.82,0005.15,0004.87
2021-11-02 04:51:00,,0833.7,5.00,0.00,22.9,22.1,00.0,31.9,24.7,20.6,0000.0,0008.77,0005.11,0004.85
2021-11-02 04:52:00,,0833.7,5.01,0.00,22.9,22.1,00.0,31.9,24.7,20.6,0000.0,0008.86,0005.14,0004.83
2021-11-02 04:53:00,,0833.6,5.00,0.00,22.9,22.1,00.0,31.9,24.7,20.6,0000.0,0008.91,0005.17,0004.84
2021-11-02 04:54:00,,0833.6,5.00,0.00,22.9,22.1,00.0,31.9,24.7,20.6,0000.0,0009.17,0005.20,0004.85
2021-11-02 04:55:00,,0833.7,5.01,0.00,22.9,22.1,00.0,31.9,24.7,20.6,0000.0,0008.70,0005.19,0004.86
2021-11-02 04:56:00,,0833.7,4.99,0.00,22.9,22.1,00.0,31.9,24.7,20.6,0000.0,0008.25,0005.18,0004.84
2021-11-02 04:57:00,,0833.7,4.99,0.00,22.9,22.1,00.0,31.9,24.7,20.7,0000.0,0008.28,0005.19,0004.83
2021-11-02 04:58:00,,0833.7,5.00,0.00,22.9,22.1,00.0,31.9,24.7,20.7,0000.0,0008.26,0005.21,0004.83
2021-11-02 04:59:00,,0833.7,5.00,0.00,22.9,22.1,00.0,31.9,24.7,20.7,0000.0,0008.27,0005.22,0004.84
